AOS77 EGBJ-EGBJ

Flight info

Callsign AOS77
Flight time N/A
Altitude 5000
Route VFR
Aircraft DA42/L-SDE2E3FGHIJ4J5M1RWXYZ/LB1D1

Departure

Time 2026-04-24 15:19
Airport Gloucestershire Airport (EGBJ)

Arrival

Time N/A
Airport Gloucestershire Airport (EGBJ)
Time Latitude Longitude Altitude Speed Heading
2026-04-24 15:08 51.88973 -2.16358 95 ft 0 kts 80°
2026-04-24 15:13 51.88974 -2.16356 95 ft 0 kts 55°
2026-04-24 15:13 51.88979 -2.16366 95 ft 1 kts 330°
2026-04-24 15:14 51.89007 -2.16377 94 ft 5 kts 349°
2026-04-24 15:14 51.89026 -2.16384 93 ft 3 kts 346°
2026-04-24 15:14 51.89033 -2.16412 93 ft 2 kts 258°
2026-04-24 15:14 51.89032 -2.16417 93 ft 0 kts 261°
2026-04-24 15:15 51.89026 -2.16484 93 ft 9 kts 244°
2026-04-24 15:15 51.88953 -2.16498 93 ft 13 kts 182°
2026-04-24 15:15 51.88874 -2.16577 92 ft 16 kts 248°
2026-04-24 15:15 51.88865 -2.16771 92 ft 16 kts 287°
2026-04-24 15:16 51.88913 -2.16949 92 ft 20 kts 299°
2026-04-24 15:16 51.89003 -2.17136 84 ft 22 kts 317°
2026-04-24 15:16 51.89139 -2.17267 81 ft 23 kts 319°
2026-04-24 15:16 51.89248 -2.17430 82 ft 16 kts 313°
2026-04-24 15:17 51.89324 -2.17554 82 ft 10 kts 316°
2026-04-24 15:17 51.89357 -2.17541 84 ft 0 kts 81°
2026-04-24 15:18 51.89359 -2.17512 82 ft 19 kts 85°
2026-04-24 15:18 51.89392 -2.16983 94 ft 69 kts 84°
2026-04-24 15:18 51.89450 -2.16109 180 ft 83 kts 84°
2026-04-24 15:19 51.89523 -2.15134 396 ft 91 kts 83°
2026-04-24 15:19 51.89614 -2.14088 550 ft 101 kts 81°
2026-04-24 15:19 51.89758 -2.12893 626 ft 112 kts 81°
2026-04-24 15:19 51.89636 -2.11652 732 ft 115 kts 120°
2026-04-24 15:20 51.88997 -2.10891 843 ft 120 kts 163°
2026-04-24 15:20 51.88185 -2.10952 1070 ft 112 kts 183°
2026-04-24 15:20 51.87430 -2.11232 1361 ft 111 kts 194°
2026-04-24 15:20 51.86813 -2.12056 1496 ft 127 kts 236°
2026-04-24 15:21 51.86396 -2.13428 1496 ft 143 kts 244°
2026-04-24 15:21 51.85983 -2.14900 1506 ft 148 kts 243°
2026-04-24 15:21 51.85564 -2.16440 1511 ft 150 kts 244°
2026-04-24 15:21 51.85121 -2.17954 1493 ft 147 kts 243°
2026-04-24 15:22 51.84700 -2.19416 1512 ft 141 kts 243°
2026-04-24 15:22 51.84604 -2.19744 1505 ft 141 kts 243°
2026-04-24 15:22 51.84227 -2.21033 1503 ft 141 kts 242°
2026-04-24 15:23 51.83408 -2.23979 1490 ft 141 kts 244°
2026-04-24 15:23 51.82585 -2.26904 1492 ft 148 kts 243°
2026-04-24 15:23 51.82159 -2.28396 1507 ft 145 kts 243°
2026-04-24 15:24 51.80991 -2.32557 1997 ft 144 kts 242°
2026-04-24 15:25 51.80274 -2.35087 2014 ft 147 kts 244°
2026-04-24 15:25 51.79307 -2.38481 2353 ft 128 kts 243°
2026-04-24 15:26 51.77690 -2.41271 2838 ft 111 kts 210°
2026-04-24 15:27 51.75864 -2.43510 3346 ft 107 kts 210°
2026-04-24 15:27 51.74444 -2.46326 3725 ft 108 kts 225°
2026-04-24 15:28 51.72529 -2.50248 4001 ft 124 kts 224°
2026-04-24 15:29 51.71420 -2.52485 3999 ft 129 kts 225°
2026-04-24 15:30 51.69695 -2.55904 4004 ft 131 kts 225°
2026-04-24 15:31 51.67277 -2.60636 3991 ft 138 kts 225°
2026-04-24 15:32 51.64854 -2.65388 3986 ft 139 kts 224°
2026-04-24 15:33 51.63645 -2.71055 3986 ft 144 kts 272°
2026-04-24 15:33 51.63881 -2.75849 3988 ft 147 kts 272°
2026-04-24 15:34 51.64037 -2.79186 3987 ft 147 kts 271°
2026-04-24 15:35 51.64298 -2.84059 4030 ft 146 kts 272°
2026-04-24 15:35 51.64441 -2.87306 4015 ft 142 kts 271°
2026-04-24 15:35 51.64517 -2.88877 4029 ft 141 kts 272°
2026-04-24 15:36 51.64596 -2.90453 4028 ft 141 kts 271°
2026-04-24 15:36 51.64758 -2.93581 4020 ft 143 kts 272°
2026-04-24 15:36 51.64852 -2.95202 4025 ft 147 kts 272°
2026-04-24 15:37 51.64885 -2.96826 4015 ft 142 kts 255°
2026-04-24 15:37 51.64550 -2.98264 4026 ft 136 kts 238°
2026-04-24 15:37 51.64276 -2.99197 4039 ft 138 kts 238°
2026-04-24 15:37 51.63729 -3.01089 4034 ft 141 kts 239°
2026-04-24 15:38 51.63297 -3.02496 4015 ft 139 kts 237°
2026-04-24 15:38 51.62877 -3.03900 4013 ft 139 kts 238°
2026-04-24 15:38 51.62452 -3.05296 4025 ft 141 kts 238°
2026-04-24 15:38 51.62015 -3.06701 4009 ft 141 kts 238°
2026-04-24 15:39 51.61578 -3.08105 4011 ft 139 kts 237°
2026-04-24 15:39 51.61154 -3.09500 4016 ft 140 kts 238°
2026-04-24 15:39 51.60740 -3.10898 4014 ft 140 kts 237°
2026-04-24 15:39 51.60322 -3.12330 4015 ft 141 kts 239°
2026-04-24 15:40 51.59887 -3.13754 4000 ft 143 kts 238°
2026-04-24 15:40 51.59442 -3.15193 3997 ft 143 kts 238°
2026-04-24 15:40 51.59017 -3.16627 4001 ft 141 kts 238°
2026-04-24 15:40 51.58603 -3.18057 4004 ft 141 kts 237°
2026-04-24 15:41 51.58185 -3.19486 3970 ft 141 kts 238°
2026-04-24 15:41 51.57773 -3.20906 3982 ft 140 kts 238°
2026-04-24 15:41 51.57341 -3.22339 3968 ft 144 kts 239°
2026-04-24 15:41 51.56901 -3.23789 3976 ft 145 kts 237°
2026-04-24 15:42 51.56459 -3.25226 3965 ft 144 kts 238°
2026-04-24 15:42 51.56029 -3.26641 3964 ft 139 kts 237°
2026-04-24 15:42 51.55610 -3.28032 3971 ft 139 kts 237°
2026-04-24 15:42 51.55193 -3.29435 3965 ft 138 kts 238°
2026-04-24 15:43 51.54761 -3.30812 3972 ft 139 kts 237°
2026-04-24 15:43 51.54330 -3.32209 3972 ft 140 kts 237°
2026-04-24 15:43 51.53753 -3.33474 3809 ft 145 kts 214°
2026-04-24 15:43 51.52952 -3.34523 3567 ft 153 kts 212°
2026-04-24 15:44 51.52111 -3.35598 3335 ft 156 kts 211°
2026-04-24 15:44 51.51220 -3.36511 3265 ft 146 kts 200°
2026-04-24 15:44 51.50317 -3.37217 3282 ft 139 kts 197°
2026-04-24 15:44 51.49421 -3.37704 3153 ft 140 kts 189°
2026-04-24 15:45 51.48450 -3.38140 2835 ft 150 kts 188°
2026-04-24 15:45 51.47403 -3.38561 2515 ft 157 kts 188°
2026-04-24 15:45 51.46372 -3.38996 2310 ft 151 kts 188°
2026-04-24 15:45 51.45378 -3.39496 2020 ft 147 kts 191°
2026-04-24 15:46 51.44411 -3.39978 1725 ft 143 kts 189°
2026-04-24 15:46 51.43788 -3.40308 1520 ft 142 kts 191°
2026-04-24 15:46 51.42884 -3.40775 1373 ft 125 kts 187°
2026-04-24 15:46 51.42071 -3.40749 1134 ft 115 kts 158°
2026-04-24 15:47 51.41331 -3.39825 785 ft 95 kts 109°
2026-04-24 15:47 51.41131 -3.39186 635 ft 95 kts 111°
2026-04-24 15:47 51.40881 -3.38245 576 ft 94 kts 108°
2026-04-24 15:47 51.40577 -3.37250 528 ft 103 kts 113°
2026-04-24 15:48 51.40247 -3.36188 406 ft 112 kts 112°
2026-04-24 15:48 51.39889 -3.35016 504 ft 120 kts 113°
2026-04-24 15:48 51.39534 -3.33808 663 ft 118 kts 110°
2026-04-24 15:48 51.39173 -3.32666 785 ft 114 kts 129°
2026-04-24 15:49 51.38406 -3.32236 860 ft 126 kts 182°
2026-04-24 15:49 51.37727 -3.32942 1085 ft 126 kts 229°
2026-04-24 15:49 51.37446 -3.34290 1182 ft 127 kts 269°
2026-04-24 15:49 51.37496 -3.35770 1197 ft 139 kts 277°
2026-04-24 15:50 51.37725 -3.37240 1315 ft 139 kts 290°
2026-04-24 15:50 51.38078 -3.38698 1407 ft 141 kts 293°
2026-04-24 15:50 51.38383 -3.40220 1482 ft 147 kts 288°
2026-04-24 15:50 51.38669 -3.41809 1595 ft 147 kts 287°
2026-04-24 15:51 51.38952 -3.43361 1759 ft 143 kts 287°
2026-04-24 15:51 51.39238 -3.44881 1896 ft 143 kts 287°
2026-04-24 15:51 51.39523 -3.46406 1984 ft 146 kts 288°
2026-04-24 15:51 51.39827 -3.48055 1969 ft 160 kts 287°
2026-04-24 15:52 51.40154 -3.49746 1974 ft 158 kts 288°
2026-04-24 15:52 51.40491 -3.51428 1962 ft 161 kts 287°
2026-04-24 15:52 51.40828 -3.53129 1964 ft 159 kts 288°
2026-04-24 15:52 51.41159 -3.54846 1954 ft 163 kts 287°
2026-04-24 15:53 51.41675 -3.56415 1971 ft 158 kts 322°
2026-04-24 15:53 51.42631 -3.57077 1981 ft 148 kts
2026-04-24 15:53 51.43534 -3.56546 1972 ft 134 kts 52°
2026-04-24 15:53 51.44051 -3.55360 1970 ft 127 kts 65°
2026-04-24 15:54 51.44363 -3.54086 1953 ft 120 kts 79°
2026-04-24 15:54 51.44550 -3.52829 1979 ft 114 kts 80°
2026-04-24 15:54 51.44667 -3.51576 1966 ft 111 kts 98°
2026-04-24 15:54 51.44518 -3.50355 1971 ft 115 kts 104°
2026-04-24 15:55 51.44286 -3.49145 1949 ft 115 kts 111°
2026-04-24 15:55 51.43933 -3.47990 1983 ft 115 kts 117°
2026-04-24 15:55 51.43556 -3.46922 2011 ft 108 kts 117°
2026-04-24 15:55 51.43201 -3.45833 1837 ft 112 kts 115°
2026-04-24 15:56 51.42872 -3.44811 1681 ft 91 kts 115°
2026-04-24 15:56 51.42607 -3.43943 1547 ft 86 kts 114°
2026-04-24 15:56 51.42348 -3.43105 1341 ft 81 kts 113°
2026-04-24 15:56 51.42102 -3.42319 1201 ft 81 kts 113°
2026-04-24 15:57 51.41839 -3.41526 1081 ft 80 kts 111°
2026-04-24 15:57 51.41608 -3.40713 949 ft 77 kts 107°
2026-04-24 15:57 51.41375 -3.39918 780 ft 82 kts 112°
2026-04-24 15:57 51.41143 -3.39107 665 ft 80 kts 106°
2026-04-24 15:58 51.40892 -3.38273 586 ft 86 kts 113°
2026-04-24 15:58 51.40627 -3.37433 527 ft 82 kts 111°
2026-04-24 15:58 51.40370 -3.36605 404 ft 84 kts 110°
2026-04-24 15:58 51.40119 -3.35791 280 ft 80 kts 111°
2026-04-24 15:59 51.39888 -3.35050 217 ft 69 kts 113°
2026-04-24 15:59 51.39739 -3.34563 217 ft 32 kts 114°
2026-04-24 15:59 51.39642 -3.34266 216 ft 25 kts 118°
2026-04-24 15:59 51.39567 -3.34223 216 ft 13 kts 238°
2026-04-24 16:00 51.39538 -3.34384 217 ft 16 kts 256°
2026-04-24 16:00 51.39469 -3.34481 221 ft 8 kts 187°
2026-04-24 16:00 51.39463 -3.34478 221 ft 0 kts 137°